This is the latest recevied weather packets stored in our database for station/object KQ4UPF. If no packets are shown the sender has not sent any weather packets the latest 1 day(s).
| Time | Temp. | Humidity | Pressure | Rain* | Wind** | Luminosity | Snow |
|---|---|---|---|---|---|---|---|
| 1778024869 | 21.67° C | 60% | 1012.1 hPa | 0 mm | 0.45 m/s, 104° | 29 W/m² | - |
| 1778024567 | 21.67° C | 63% | 1012.1 hPa | 0 mm | 0 m/s | 29 W/m² | - |
| 1778024263 | 21.67° C | 67% | 1012.1 hPa | 0 mm | 0 m/s | 41 W/m² | - |
| 1778023961 | 21.67° C | 66% | 1012.3 hPa | 0 mm | 0 m/s | 54 W/m² | - |
| 1778023658 | 21.67° C | 70% | 1012.5 hPa | 0 mm | 0 m/s | 32 W/m² | - |
| 1778023356 | 21.67° C | 66% | 1012.4 hPa | 0 mm | 0 m/s | 30 W/m² | - |
| 1778023052 | 21.67° C | 69% | 1012.3 hPa | 0 mm | 0 m/s | 40 W/m² | - |
| 1778022751 | 21.67° C | 69% | 1012.5 hPa | 0 mm | 0 m/s | 45 W/m² | - |
| 1778022449 | 21.67° C | 64% | 1012.5 hPa | 0 mm | 0.45 m/s, 109° | 48 W/m² | - |
| 1778022145 | 21.67° C | 65% | 1012.8 hPa | 0 mm | 0.89 m/s, 156° | 33 W/m² | - |
| 1778021842 | 21.67° C | 67% | 1012.8 hPa | 0 mm | 0 m/s | 33 W/m² | - |
| 1778021539 | 22.22° C | 67% | 1012.8 hPa | 0 mm | 0.45 m/s, 156° | 35 W/m² | - |
| 1778021234 | 22.22° C | 64% | 1012.7 hPa | 0 mm | 0.45 m/s, 156° | 39 W/m² | - |
| 1778020932 | 22.22° C | 62% | 1012.9 hPa | 0 mm | 0 m/s | 38 W/m² | - |
| 1778020630 | 22.78° C | 64% | 1012.9 hPa | 0 mm | 0 m/s | 38 W/m² | - |
| 1778020325 | 22.78° C | 62% | 1012.4 hPa | 0 mm | 0 m/s | 48 W/m² | - |
| 1778020021 | 23.33° C | 62% | 1012.8 hPa | 0 mm | 0 m/s | 60 W/m² | - |
| 1778019717 | 23.89° C | 61% | 1012.8 hPa | 0 mm | 0.45 m/s, 156° | 70 W/m² | - |
| 1778019415 | 23.89° C | 57% | 1012.7 hPa | 0 mm | 0.45 m/s, 157° | 99 W/m² | - |
| 1778019111 | 23.89° C | 58% | 1012.8 hPa | 0 mm | 0 m/s | 139 W/m² | - |
| 1778018809 | 23.89° C | 57% | 1012.6 hPa | 0 mm | 0.45 m/s, 137° | 186 W/m² | - |
| 1778018506 | 23.89° C | 56% | 1012.6 hPa | 0 mm | 0.45 m/s, 137° | 224 W/m² | - |
| 1778018204 | 23.89° C | 56% | 1012.6 hPa | 0 mm | 0.45 m/s, 137° | 234 W/m² | - |
| 1778017902 | 23.89° C | 55% | 1012.6 hPa | 0 mm | 0.89 m/s, 117° | 184 W/m² | - |
| 1778017600 | 24.44° C | 57% | 1012.6 hPa | 0 mm | 1.34 m/s, 115° | 295 W/m² | - |
* Rain latest hour (hover to see other rain measurements)
** Current wind speed in m/s (hover to see current wind gust speed)